Location: Caltech
(34.1382°N, 118.1253°W)
Time: 13:01:26
(UTC-07:00)

SL-08 RB Rocket - Visible Passes

Search period start: 24 July 2014 00:00
Search period end: 03 August 2014 00:00
Orbit: 649 x 689 km, 98.1° (Epoch: 23 July)

Date Brightness Start Highest point End Pass type
(mag) Time Alt. Az. Time Alt. Az. Time Alt. Az.
24 Jul 4.6 21:54:47 32° ENE 21:55:01 32° ENE 21:59:02 10° N visible
24 Jul 6.0 23:32:59 18° W 23:32:59 18° W 23:35:18 10° NW visible
25 Jul 3.7 22:27:48 72° NNE 22:27:48 72° NNE 22:31:58 10° N visible
26 Jul 5.5 21:22:37 14° ENE 21:23:21 15° ENE 21:25:52 10° NNE visible
26 Jul 4.8 23:00:49 39° WNW 23:00:49 39° WNW 23:04:20 10° NNW visible
27 Jul 4.6 21:55:38 33° ENE 21:55:40 33° ENE 21:59:41 10° N visible
27 Jul 6.0 23:33:50 17° WNW 23:33:50 17° WNW 23:35:54 10° NW visible
28 Jul 3.8 22:28:40 67° NNE 22:28:40 67° NNE 22:32:37 10° N visible
29 Jul 5.5 21:23:29 15° ENE 21:24:00 15° ENE 21:26:32 10° NNE visible
29 Jul 5.0 23:01:41 37° WNW 23:01:41 37° WNW 23:04:58 10° NNW visible
30 Jul 4.6 21:56:30 33° ENE 21:56:30 33° ENE 22:00:19 10° N visible
30 Jul 6.1 23:34:42 16° WNW 23:34:42 16° WNW 23:36:30 10° NW visible
31 Jul 4.0 22:29:31 60° N 22:29:31 60° N 22:33:15 10° N visible
01 Aug 5.5 21:24:21 15° ENE 21:24:38 15° ENE 21:27:13 10° NNE visible
01 Aug 5.1 23:02:33 34° WNW 23:02:33 34° WNW 23:05:35 10° NNW visible
02 Aug 4.6 21:57:22 33° ENE 21:57:22 33° ENE 22:00:58 10° N visible
02 Aug 6.2 23:35:34 15° WNW 23:35:34 15° WNW 23:37:05 10° NW visible
